Location: Waco, TX
(31.5480°N, 97.1670°W)
Time: 13:50:37
(UTC-05:00)

ISS - Pass Details

Date: 07 May 2021
Orbit: 417 x 422 km, 51.6° (Epoch: 15 May)

Event Time Altitude Azimuth Distance (km) Brightness Sun altitude
Rises 09:11:03 0° 306° (NW) 2,368 -0.4 31.1°
Reaches altitude 10° 09:13:15 10° 297° (WNW) 1,501 -1.3 31.5°
Maximum altitude 09:16:21 35° 230° (SW) 697 -2.7 32.2°
Drops below altitude 10° 09:19:27 10° 162° (SSE) 1,494 -0.7 32.8°
Sets 09:21:38 0° 153° (SSE) 2,354 0.4 33.3°
